Location: Ponte Samoggia
(44.5667°N, 11.1333°E)
Time: 22:18:57
(UTC+00:00)

CRYOSAT 2 - Pass Details

Date: 26 May 2022
Orbit: 716 x 722 km, 92.0° (Epoch: 29 June)

Event Time Altitude Azimuth Distance (km) Brightness Sun altitude
Exits shadow 01:36:52 25° 188° (S) 1,436 5.4 -16.5°
Maximum altitude 01:39:43 70° 267° (W) 771 4.3 -16.2°
Drops below altitude 10° 01:44:36 10° 351° (N) 2,220 7.5 -15.7°
Sets 01:46:55 0° 354° (N) 3,146 8.4 -15.5°
